SCP
1 1 1 1 2 2 2 1 1 1 1 1 1 1 1 2 2 2 2 3 4 3 2 2 3 3 2 1 1 1 1 1 1 0 0 0 0 0 0 0 0 0 0 0 0 0 0 0 0
1 1 1 1 1 2 1 1 1 1 1 1 1 1 2 2 2 2 2 3 4 3 2 2 2 3 2 2 1 1 1 0 0 0 0 0 0 0 0 0 0 0 0 0 0 0 0 0 0
1 1 1 1 1 1 1 1 1 1 1 1 1 2 2 3 2 2 2 3 3 3 3 2 2 2 2 2 1 1 1 0 0 1 1 1 0 0 0 0 0 0 0 0 0 0 0 0 0
1 1 1 1 1 1 1 1 1 1 1 1 1 2 3 3 3 2 2 2 3 3 3 2 2 2 2 2 1 1 1 1 1 1 1 1 1 1 0 0 0 0 0 0 0 0 0 0 0
1 1 1 1 1 1 1 1 1 1 1 1 2 3 3 4 3 2 2 2 3 3 3 3 2 2 2 1 1 1 1 1 1 1 1 1 1 1 1 1 1 1 1 1 0 0 0 0 0
0 0 0 0 1 1 1 1 1 1 1 2 2 3 3 3 3 2 2 2 4 4 3 3 2 2 2 1 1 1 1 1 1 1 1 1 1 1 1 1 1 1 1 1 1 0 0 0 0
0 0 0 0 1 1 1 1 1 1 1 2 2 3 3 3 3 3 3 4 5 4 3 3 2 2 2 1 1 1 1 1 1 1 1 0 0 1 1 1 1 1 1 1 1 0 0 0 0
0 0 0 0 1 1 1 1 1 1 2 2 3 3 3 3 3 4 4 5 6 5 4 3 2 2 2 1 1 1 1 1 1 1 1 0 0 1 1 1 0 0 0 0 0 0 0 0 0
0 0 0 0 0 0 0 1 1 2 3 3 3 3 3 3 3 4 4 5 5 5 4 3 2 2 1 1 1 1 1 1 1 1 1 1 1 1 1 1 1 0 0 0 0 0 0 0 0
0 0 0 0 0 0 0 1 1 2 3 4 4 4 4 4 4 4 4 4 5 5 4 3 3 2 2 1 2 2 1 1 1 1 1 1 1 1 1 1 1 1 1 1 0 0 0 1 1
0 0 0 0 0 0 1 1 2 2 3 4 5 6 6 5 6 5 4 4 5 6 5 4 4 3 3 3 2 2 2 1 1 2 2 2 1 1 1 1 1 1 1 1 1 1 1 1 1
0 0 0 0 0 1 1 2 3 3 3 4 6 6 6 5 5 5 5 4 5 6 6 6 5 5 4 4 4 3 3 2 2 2 2 1 1 1 1 1 1 1 1 2 2 2 1 1 1
0 0 0 1 1 1 2 3 3 3 3 4 5 6 5 4 5 5 5 5 5 6 7 7 6 6 6 6 6 5 4 3 2 2 1 1 1 1 1 1 1 1 1 1 2 2 1 1 1
0 0 0 0 1 1 2 2 2 3 3 4 5 5 4 5 6 7 6 5 6 7 8 8 7 6 5 5 6 5 5 3 2 2 1 1 1 1 1 1 1 1 1 1 1 1 1 1 1
0 0 0 0 0 1 1 2 2 2 3 4 5 5 5 6 7 8 7 6 6 6 7 7 6 5 5 4 4 5 4 3 3 2 2 1 1 1 1 1 1 1 1 1 1 1 1 1 1
0 0 0 0 0 1 1 1 2 2 3 5 5 6 6 7 7 6 6 5 5 5 5 5 5 5 5 4 4 4 3 3 3 3 2 2 1 1 1 1 1 1 1 1 1 1 1 1 1
0 0 0 0 0 1 1 1 2 3 4 5 6 6 6 6 5 5 4 4 4 4 4 4 4 5 6 5 4 3 3 2 3 3 2 2 1 1 1 1 1 1 1 1 1 1 1 1 1
0 0 0 0 0 1 1 1 2 2 3 5 6 6 6 6 5 4 3 3 3 4 4 4 4 5 6 5 4 3 2 2 2 2 2 2 1 1 1 1 1 1 1 1 1 1 1 1 1
0 0 0 1 1 1 1 1 2 2 3 4 6 7 7 6 5 4 3 3 4 5 4 4 4 4 5 4 3 2 2 1 2 2 1 1 1 1 1 1 1 1 1 1 1 1 1 1 1
0 0 0 1 0 0 1 1 2 2 3 4 6 6 6 5 4 4 4 4 5 5 4 3 3 4 3 3 2 2 1 1 1 1 1 1 1 1 1 1 1 1 1 1 1 1 1 1 1
0 0 0 0 0 0 1 1 1 2 3 4 5 6 5 4 3 3 3 4 4 4 3 3 3 3 2 2 1 1 1 1 1 1 1 1 1 1 1 1 1 1 1 1 1 1 1 1 1
0 0 0 0 0 1 1 1 1 2 3 4 5 5 4 3 2 2 2 3 4 4 3 2 2 2 1 1 1 1 1 1 1 0 0 0 0 0 0 1 1 1 1 1 1 1 1 1 1
0 0 0 0 0 1 1 1 1 2 2 3 3 3 3 2 2 2 2 3 3 3 2 1 1 1 1 1 1 1 0 0 0 0 0 0 0 0 0 0 0 0 1 1 1 1 1 1 1
0 0 0 0 0 1 1 1 1 1 2 2 3 3 2 2 1 1 2 2 2 2 1 1 1 1 0 0 0 0 0 0 0 0 0 0 0 0 0 0 0 0 0 0 0 1 1 1 1
0 0 0 0 0 1 1 1 1 1 1 2 2 3 2 2 1 1 1 2 2 1 1 1 1 1 0 0 0 0 0 0 0 0 0 0 0 0 0 0 0 0 0 0 0 0 0 0 1
0 0 0 0 0 1 1 1 1 1 1 1 2 2 2 2 2 2 1 1 1 1 1 1 1 1 1 1 1 1 1 0 0 0 0 0 0 0 0 0 0 0 0 0 0 0 0 0 0
0 0 0 1 0 0 1 1 1 1 1 1 2 2 2 2 2 2 2 1 1 1 1 1 1 1 1 1 1 1 0 0 0 0 0 0 0 0 0 0 0 0 0 0 0 0 0 0 0
0 0 1 1 0 0 0 1 1 1 1 1 1 2 2 1 2 2 2 2 1 1 1 1 1 1 1 1 1 0 0 0 0 0 0 0 0 0 0 0 0 0 0 0 0 0 0 0 0
0 0 1 1 1 0 0 0 1 1 1 1 1 1 2 2 1 2 2 2 1 1 1 1 1 1 1 1 1 0 0 0 0 0 0 0 0 0 0 0 0 0 0 0 0 0 0 0 0
0 1 1 1 1 0 0 0 0 0 0 1 1 1 2 2 1 2 2 2 2 1 1 1 1 2 1 1 1 1 0 0 0 0 0 0 0 0 0 0 0 0 0 1 0 0 0 0 0
Wind_Speed
9 12 11 8 7 7 6 5 7 8 8 9 9 8 12 13 10 9 7 14 20 19 17 16 14 14 14 13 13 12 12 12 12 12 12 12 11 11 12 12 12 12 12 12 12 12 12 12 11
11 13 10 7 7 7 2 2 5 9 9 6 6 8 12 13 12 11 10 15 20 19 16 15 16 14 14 13 13 12 12 12 12 12 11 11 10 10 11 11 11 11 11 11 11 12 12 11 11
13 16 9 8 10 7 2 4 6 6 6 3 5 9 10 8 9 9 11 15 18 17 16 16 16 15 14 13 13 12 12 12 12 11 11 10 10 10 10 10 10 10 11 11 11 11 11 10 9
9 9 8 9 11 5 4 5 3 3 5 3 6 10 9 7 7 10 11 15 16 17 17 16 16 15 14 13 12 12 12 11 11 11 10 10 10 9 10 9 10 10 10 10 10 10 10 9 7
11 8 9 11 11 3 3 5 4 4 4 5 7 12 9 7 10 12 11 13 15 17 16 16 16 15 14 13 12 12 11 11 11 11 10 10 9 9 9 9 9 9 9 9 9 9 8 8 6
9 9 10 10 6 2 4 5 4 4 3 5 7 11 8 9 9 9 11 11 15 17 16 15 16 15 14 12 12 12 11 11 10 10 10 9 9 9 9 8 8 8 8 8 8 8 7 6 5
11 11 12 11 4 3 3 4 3 4 5 6 5 9 8 9 9 8 9 10 13 16 16 14 13 13 14 13 12 11 11 10 10 9 9 8 8 8 8 8 8 8 7 7 7 6 6 5 3
10 9 13 10 4 2 3 3 4 5 5 5 6 8 9 9 9 10 10 11 11 12 13 13 12 12 11 11 12 12 11 10 10 9 8 8 8 8 8 8 7 7 7 6 6 6 5 4 3
11 8 9 8 4 3 3 3 3 3 6 8 9 11 13 13 11 11 10 10 10 10 9 10 10 9 10 11 11 11 11 10 9 8 8 8 6 7 7 8 9 8 6 6 5 5 5 5 5
7 6 8 6 6 6 4 2 1 3 4 8 8 12 14 13 11 10 9 10 10 10 9 7 8 6 6 7 8 6 7 7 6 5 5 4 3 3 6 10 10 8 7 7 6 6 6 6 4
7 7 7 6 5 5 4 3 2 2 5 6 9 13 13 12 10 9 8 8 9 8 8 7 6 4 5 4 5 3 3 4 4 4 3 2 2 2 4 4 5 5 6 5 5 6 4 4 2
7 6 5 5 4 4 4 3 4 6 8 8 9 12 13 12 10 9 8 7 7 7 8 7 7 4 4 4 3 3 3 3 3 3 1 2 1 1 2 2 2 2 2 2 2 2 1 1 1
8 6 5 4 3 3 3 2 2 7 8 9 11 10 11 11 10 9 9 8 7 6 8 7 7 6 5 4 2 3 3 3 4 3 2 2 2 2 2 2 1 1 1 1 1 0 1 1 2
7 6 5 4 4 2 2 2 1 5 7 9 9 8 7 9 10 10 9 9 7 6 7 7 8 7 5 4 3 2 3 3 3 3 3 2 2 2 2 2 1 1 1 1 0 1 1 0 1
8 8 7 5 6 4 2 1 1 5 7 9 9 8 10 9 9 9 7 8 8 7 7 7 8 7 5 4 3 2 2 3 3 4 4 3 3 2 2 1 1 1 0 1 0 0 0 1 1
9 8 9 8 8 6 5 2 5 7 6 9 10 10 11 10 9 9 8 8 8 8 7 6 7 7 6 4 3 2 2 3 3 3 4 4 3 2 1 1 2 1 0 1 1 1 0 1 1
9 10 12 8 7 5 5 3 7 8 8 10 10 11 12 11 10 10 9 9 9 7 7 7 6 6 5 4 3 4 3 3 3 3 3 3 3 2 2 2 2 1 1 1 1 2 1 0 1
10 9 6 5 4 5 4 5 8 8 9 11 11 11 12 11 11 10 10 10 9 8 7 7 6 5 4 4 3 3 3 3 3 4 3 3 3 3 2 3 2 1 2 2 2 1 0 1 1
11 8 5 2 3 5 5 6 9 10 9 10 12 12 12 12 12 11 10 11 10 8 7 6 6 4 3 3 3 3 3 3 4 4 4 4 3 3 2 3 2 1 3 2 2 2 1 1 1
10 8 6 4 5 5 5 6 9 10 10 11 13 13 14 14 13 12 11 10 10 9 7 7 6 5 4 4 3 2 3 3 4 4 3 4 3 2 2 3 2 2 2 2 2 2 1 1 1
9 8 8 8 7 7 6 7 8 10 9 10 12 14 15 15 15 13 12 11 10 9 8 7 7 5 4 4 3 4 3 2 4 4 3 3 3 3 4 3 3 3 2 2 2 3 3 2 1
9 8 9 8 8 7 8 6 8 11 11 11 12 14 15 15 15 14 13 11 10 10 9 8 7 6 4 3 3 3 4 4 4 4 4 3 3 3 4 3 3 3 3 3 2 4 3 2 2
9 8 8 9 9 9 8 6 6 11 13 13 13 15 16 16 16 15 14 12 11 11 11 9 8 6 5 4 4 2 3 4 4 5 5 4 3 3 4 3 3 3 3 3 4 3 3 3 3
9 9 7 6 6 8 10 8 5 10 14 16 16 16 17 17 17 16 14 13 11 11 11 10 8 6 5 5 5 3 4 4 5 4 4 3 3 3 3 4 3 2 2 3 3 3 3 3 3
10 8 4 4 5 7 8 6 5 9 12 15 18 17 18 17 17 16 16 14 12 12 12 11 10 7 6 6 5 5 5 4 4 3 3 2 3 3 4 4 3 2 2 2 2 1 2 2 2
11 10 8 6 5 3 4 3 4 8 9 12 16 18 18 18 17 17 17 15 13 13 12 12 10 8 7 6 5 5 4 3 3 2 2 2 3 5 4 3 2 2 1 2 2 1 0 1 2
12 11 10 8 5 3 3 2 4 6 10 12 15 17 18 18 18 17 17 16 14 13 12 12 11 9 8 8 6 5 4 2 4 3 1 2 3 4 4 2 2 2 2 1 1 0 1 1 1
14 10 7 6 5 5 3 3 4 7 10 12 14 16 17 17 18 17 17 16 15 13 12 13 12 10 9 8 7 7 5 4 4 3 3 4 4 4 2 2 2 2 1 1 1 1 1 1 1
11 11 8 6 4 4 3 1 5 9 9 11 14 16 17 17 17 17 16 16 15 15 14 13 12 11 9 8 7 7 6 5 4 3 3 4 3 3 2 1 1 1 1 1 1 1 0 0 1
11 11 9 7 6 5 3 1 5 10 12 11 13 15 16 16 16 17 17 16 15 15 15 13 13 12 10 8 7 7 6 6 5 4 4 4 3 3 3 2 2 2 1 1 1 2 1 1 1
Wind_Direction
236 243 238 249 244 244 268 312 21 57 67 55 49 57 67 57 68 97 127 118 114 118 124 125 124 127 127 124 123 123 122 119 117 113 110 106 102 100 97 95 93 91 90 87 87 88 88 88 88
256 253 244 244 254 264 260 353 43 58 68 69 75 73 76 71 84 109 115 113 117 122 129 126 126 126 127 125 124 125 125 123 120 117 114 110 106 104 101 98 95 93 91 89 88 89 90 90 90
260 262 259 249 252 268 346 53 68 72 85 63 76 69 68 71 82 103 115 120 118 123 122 124 130 128 128 127 126 126 126 124 123 121 119 115 111 108 105 103 100 96 94 92 90 89 90 92 93
254 242 243 262 275 308 17 41 52 98 100 71 88 83 73 63 91 115 130 126 124 122 121 128 130 130 130 130 129 127 127 126 124 123 120 117 113 109 106 103 102 98 96 95 94 93 92 94 96
244 256 248 262 274 311 26 39 11 48 71 80 84 98 90 81 103 125 130 123 121 118 123 129 131 130 131 131 131 129 130 129 128 126 123 120 116 113 110 108 105 102 100 99 98 98 98 96 95
251 256 262 268 282 21 44 47 15 45 85 86 99 108 100 107 112 125 124 122 118 118 121 128 131 132 131 132 132 131 132 133 133 130 128 127 123 120 118 116 112 108 106 106 105 105 104 102 99
260 274 281 285 297 0 21 37 22 41 56 62 77 98 113 117 118 112 111 112 112 118 127 135 137 136 136 135 135 135 135 134 135 135 135 134 132 134 131 127 124 120 117 115 116 117 115 114 115
262 282 293 295 316 19 36 43 47 49 68 60 68 105 128 131 131 119 110 104 115 118 126 135 141 144 146 142 142 143 142 142 141 143 147 148 148 150 147 146 138 135 133 130 131 134 138 146 165
257 269 285 306 352 22 40 50 58 84 80 67 63 92 127 140 133 125 118 112 116 112 117 131 132 146 150 149 148 151 151 152 153 158 164 169 177 164 165 145 147 150 152 153 154 161 170 183 201
243 255 279 327 3 5 12 18 297 124 93 92 88 106 125 130 128 130 131 128 123 119 119 116 125 131 140 142 144 153 160 155 168 159 170 189 177 152 141 141 154 160 168 174 181 189 202 216 207
252 262 297 331 4 353 341 342 12 39 79 105 129 129 131 130 127 128 124 119 121 122 116 111 110 115 117 121 137 135 135 145 150 138 154 145 133 138 128 145 154 170 184 194 180 199 220 218 204
254 274 298 322 353 332 325 350 30 54 73 92 112 124 133 131 128 123 117 116 121 120 112 111 110 101 83 91 115 132 131 128 112 114 98 91 88 69 100 118 141 172 177 166 181 223 235 298 316
245 255 271 283 292 317 327 348 56 81 87 100 106 118 129 131 129 121 121 117 119 120 113 110 105 92 85 74 74 95 93 104 108 107 84 80 94 72 68 60 62 43 111 149 179 145 31 7 340
281 276 267 268 287 283 300 312 105 98 104 106 111 112 120 125 126 126 128 126 128 127 118 115 110 101 95 90 77 80 107 108 105 100 99 78 80 88 91 89 60 47 65 71 103 141 148 273 304
278 278 274 265 243 230 215 267 83 112 125 125 121 122 112 110 120 122 131 132 132 126 122 124 121 110 102 97 98 98 93 101 97 98 97 82 76 84 91 115 110 53 78 127 148 84 97 238 243
283 274 263 249 231 210 211 229 121 135 143 135 136 132 121 119 119 120 125 127 125 125 123 122 119 113 110 102 89 87 82 88 90 95 91 83 70 68 83 88 73 8 352 109 146 162 194 277 286
256 245 249 237 204 217 204 156 134 150 160 148 145 140 136 134 131 131 140 134 127 126 121 110 107 115 119 121 113 103 95 85 91 89 89 95 91 74 76 83 69 0 34 45 14 81 65 321 284
257 258 247 223 194 212 204 144 156 168 172 155 151 145 143 143 140 141 137 129 126 124 117 116 117 118 130 126 126 126 120 118 106 101 94 88 87 67 50 98 76 22 50 57 48 59 136 234 247
277 289 293 236 212 220 200 179 173 176 171 159 154 151 149 147 144 142 139 134 132 128 123 121 120 126 132 129 138 138 134 127 114 113 106 96 81 73 48 61 87 59 68 56 43 36 323 253 217
271 279 281 249 219 217 209 204 185 176 175 167 161 155 153 148 149 148 148 143 139 141 140 136 132 131 120 110 107 114 118 116 105 94 94 88 78 53 80 62 47 52 72 67 43 39 357 347 57
262 262 260 255 239 223 220 220 195 174 172 170 163 159 157 157 157 156 154 150 148 148 148 133 124 120 116 134 132 120 119 122 118 121 108 95 90 75 52 54 45 29 47 65 38 32 24 6 358
259 250 258 257 252 247 232 234 198 175 176 176 168 166 165 162 160 160 158 154 152 149 141 130 126 120 123 133 115 145 135 125 119 118 111 104 90 93 85 70 58 35 44 46 31 56 9 3 348
264 262 261 264 263 266 246 248 187 174 185 184 181 175 169 165 163 164 163 159 157 149 143 137 130 127 126 123 120 120 113 123 119 111 120 124 116 107 100 93 70 48 58 58 42 42 25 11 10
258 263 273 293 286 270 260 253 188 192 193 184 180 177 170 167 165 164 161 158 156 152 145 142 141 141 142 132 120 107 102 102 112 120 137 155 139 123 106 102 79 59 60 62 48 30 35 36 21
240 246 249 259 247 254 263 257 179 194 182 172 171 175 171 167 165 163 163 163 162 157 150 149 149 152 153 143 134 129 122 127 133 141 149 147 135 119 91 85 79 67 67 75 58 48 37 24 19
236 242 244 258 255 272 274 254 169 159 161 159 162 168 169 168 167 167 168 167 167 162 156 153 155 157 155 143 136 134 142 165 143 118 111 119 92 100 107 98 100 93 59 51 46 357 32 55 1
238 241 247 260 266 267 244 198 152 147 148 152 157 164 170 170 170 171 169 168 167 164 161 156 158 159 158 151 147 149 152 118 110 122 131 104 98 121 112 121 115 102 83 48 18 360 29 26 341
238 239 245 247 257 270 244 210 182 181 165 164 165 167 169 170 171 171 169 168 168 166 161 158 160 161 160 157 166 159 153 131 126 145 118 94 92 90 120 120 112 112 111 85 356 326 79 43 344
236 242 254 273 266 268 274 239 169 190 184 177 175 168 168 171 173 171 169 168 168 168 165 162 161 164 167 168 171 145 155 149 153 162 136 120 120 132 141 141 148 154 160 116 338 310 306 332 326
249 244 243 253 270 267 269 223 188 181 177 184 175 169 167 172 174 170 168 168 171 170 168 166 165 168 170 166 163 159 158 159 168 166 152 147 157 172 179 178 189 212 163 139 281 298 337 339 328